Location: *
(43.7000°S, 168.7000°W)
Time: 15:04:05
(UTC+00:00)

Cosmos 1674 - Pass Details

Date: 07 July 2020
Orbit: 493 x 519 km, 82.5° (Epoch: 03 August)

Event Time Altitude Azimuth Distance (km) Brightness Sun altitude
Rises 17:31:19 0° 12° (NNE) 2,576 6.7 -13.3°
Reaches altitude 10° 17:33:30 10° 20° (NNE) 1,703 5.9 -13.0°
Maximum altitude 17:36:58 37° 88° (E) 802 4.3 -12.4°
Drops below altitude 10° 17:40:29 10° 155° (SSE) 1,735 5.4 -11.8°
Sets 17:42:43 0° 163° (SSE) 2,632 6.3 -11.4°
